Вернуться в каталог

STARLINK-36797

АктивенСвязьSSO
NORAD 67815·PAYLOAD·🇺🇸 United States

Запущен Feb 15, 2026 с Vandenberg Space Force Base

Loading…

Ближайшие Пролёты (ближайшие 24 часа)

TLE

СвежийSource: CelesTrak SupGP

Эпоха: Sep 15, 2026, 03:11 UTC

1 67815C 26032U   26258.13312500 -.00048260  00000+0 -14979-2 0  2589
2 67815  97.2859  84.6150 0001642  90.9528 241.9948 15.33467084    18

Отслеживайте STARLINK-36797 в реальном времени с AllMySat

Download on the App Store